This is the latest recevied weather packets stored in our database for station/object SM6KNE. If no packets are shown the sender has not sent any weather packets the latest 10 day(s).
| Time | Temp. | Humidity | Pressure | Rain* | Wind** | Luminosity | Snow |
|---|---|---|---|---|---|---|---|
| 1777993524 | 18.89° C | 23% | 1012.1 hPa | 0 mm | - | - | - |
| 1777991744 | 18.33° C | 25% | 1011.1 hPa | 0 mm | - | - | - |
| 1777989344 | 20° C | 23% | 1011.1 hPa | 0 mm | - | - | - |
| 1777986924 | 19.44° C | 24% | 1011.1 hPa | 0 mm | - | - | - |
| 1777982724 | 18.33° C | 27% | 1011.1 hPa | - | - | - | - |
| 1777982127 | 18.33° C | 28% | 1011.1 hPa | - | - | - | - |
| 1777981523 | 18.33° C | 29% | 1011.1 hPa | - | - | - | - |
| 1777980924 | 17.22° C | 31% | 1011.1 hPa | - | - | - | - |
| 1777977924 | 16.11° C | 32% | 1011.1 hPa | - | - | - | - |
| 1777970744 | 11.11° C | 41% | 1011.1 hPa | - | - | - | - |
| 1777966524 | 8.89° C | 49% | 1011.1 hPa | - | - | - | - |
| 1777962920 | 6.67° C | 53% | 1011.1 hPa | - | - | - | - |
| 1777962323 | 6.67° C | 53% | 1011.1 hPa | - | - | - | - |
| 1777960524 | 6.11° C | 56% | 1011.1 hPa | - | - | - | - |
| 1777953918 | 5° C | 69% | 1010.1 hPa | - | - | - | - |
| 1777952724 | 5° C | 70% | 1009.1 hPa | - | - | - | - |
| 1777946724 | 7.22° C | 79% | 1009.1 hPa | - | - | - | - |
| 1777946124 | 7.22° C | 80% | 1009.1 hPa | - | - | - | - |
| 1777943118 | 8.33° C | 81% | 1009.1 hPa | - | - | - | - |
| 1777942524 | 8.33° C | 81% | 1009.1 hPa | - | - | - | - |
| 1777940744 | 8.33° C | 81% | 1009.1 hPa | - | - | - | - |
| 1777938924 | 8.33° C | 81% | 1009.1 hPa | - | - | - | - |
| 1777937724 | 8.33° C | 80% | 1009.1 hPa | - | - | - | - |
| 1777934717 | 8.33° C | 80% | 1009.1 hPa | - | - | - | - |
| 1777931119 | 8.33° C | 80% | 1009.1 hPa | - | - | - | - |
* Rain latest 24 hours (hover to see other rain measurements)
** Current wind speed in m/s (hover to see current wind gust speed)